This demonstration page uses our WeatherBlox Daily Observations layout. Learn more.

Left ArrowRight Arrow

39.51506, -84.39828

Hourly Observations for September 21, 2020

Temp ( °F °C ) Dew Point ( °F °C ) Humidity (%) Winds ( mph kmh ) Pressure ( in mb ) Visibility ( mi km ) Precip ( " mm )
12:15 am 00:15 Clear 47 8.3 40 4.5 77 77 Calm 30.45 1031 10 16.0934 0 0
12:35 am 00:35 Clear 46 8 42 5.5 84 84 Calm 30.45 1031 10 16.0934 0 0
12:55 am 00:55 Clear 47 8.6 41 5.1 79 79 Calm 30.45 1031 10 16.0934 0 0
1:15 am 01:15 Clear 46 8 42 5.7 86 86 Calm 30.45 1031 10 16.0934 0 0
1:35 am 01:35 Clear 45 7.2 41 5.2 87 87 Calm 30.45 1031 10 16.0934 0 0
1:55 am 01:55 Clear 47 8.1 42 5.3 83 83 ENE 3 6 30.44 1031 10 16.0934 0 0
2:15 am 02:15 Clear 46 7.8 43 6 89 89 Calm 30.44 1031 10 16.0934 0 0
2:35 am 02:35 Clear 45 7.2 42 5.8 91 91 Calm 30.44 1031 10 16.0934 0 0
2:55 am 02:55 Clear 44 6.5 41 5.1 91 91 Calm 30.44 1031 10 16.0934 0 0
3:15 am 03:15 Clear 45 7 42 5.4 90 90 Calm 30.44 1031 10 16.0934 0 0
3:35 am 03:35 Clear 42 5.5 40 4.2 91 91 Calm 30.44 1031 10 16.0934 0 0
3:55 am 03:55 Clear 42 5.8 40 4.6 92 92 Calm 30.44 1031 10 16.0934 0 0
4:15 am 04:15 Clear 42 5.8 40 4.3 90 90 N 3 6 30.43 1030 10 16.0934 0 0
4:35 am 04:35 Clear 41 5 39 4 93 93 Calm 30.44 1031 10 16.0934 0 0
4:55 am 04:55 Clear 42 5.3 39 4.1 92 92 Calm 30.44 1031 10 16.0934 0 0
5:15 am 05:15 Clear 41 4.9 39 3.8 93 93 Calm 30.44 1031 10 16.0934 0 0
5:35 am 05:35 Clear 42 5.6 40 4.2 91 91 Calm 30.44 1031 10 16.0934 0 0
5:55 am 05:55 Clear 42 5.6 40 4.3 91 91 Calm 30.45 1031 10 16.0934 0 0
6:15 am 06:15 Clear 43 6.1 40 4.2 88 88 Calm 30.45 1031 10 16.0934 0 0
6:35 am 06:35 Clear 41 5.2 39 3.8 91 91 Calm 30.45 1031 10 16.0934 0 0
6:55 am 06:55 Clear 41 5.1 39 3.8 91 91 Calm 30.46 1032 10 16.0934 0 0
7:15 am 07:15 Clear 40 4.5 39 3.7 95 95 Calm 30.47 1032 10 16.0934 0 0
7:35 am 07:35 Sunny 41 5.1 40 4.4 95 95 Calm 30.48 1032 10 16.0934 0 0
7:55 am 07:55 Sunny 41 5.2 40 4.3 94 94 Calm 30.48 1032 10 16.0934 0 0
8:15 am 08:15 Sunny 43 5.9 41 4.9 93 93 Calm 30.49 1032 10 16.0934 0 0
8:35 am 08:35 Sunny 47 8.2 44 6.6 90 90 Calm 30.48 1032 10 16.0934 0 0
8:55 am 08:55 Sunny 50 10 43 6.1 77 77 Calm 30.48 1032 10 16.0934 0 0
9:15 am 09:15 Sunny 53 11.5 44 6.4 71 71 Calm 30.48 1032 10 16.0934 0 0
9:35 am 09:35 Sunny 57 13.8 43 6 60 60 SE 6 9 30.47 1032 10 16.0934 0 0
9:55 am 09:55 Sunny 58 14.7 42 5.5 54 54 SSE 9 15 30.47 1032 10 16.0934 0 0
10:15 am 10:15 Sunny 59 15.2 42 5.4 52 52 SE 9 15 30.47 1032 10 16.0934 0 0
10:35 am 10:35 Sunny 61 15.9 42 5.5 50 50 SE 8 13 30.46 1032 10 16.0934 0 0
10:55 am 10:55 Sunny 62 16.4 41 5.2 48 48 SSE 7 11 30.46 1032 10 16.0934 0 0
11:15 am 11:15 Sunny 62 16.9 42 5.3 47 47 SSE 3 6 30.46 1032 10 16.0934 0 0
11:35 am 11:35 Sunny 64 17.5 41 4.9 44 44 SSE 8 13 30.45 1031 10 16.0934 0 0
11:55 am 11:55 Sunny 65 18.5 41 5.1 41 41 E 8 13 30.45 1031 10 16.0934 0 0
12:15 pm 12:15 Sunny 66 18.7 41 4.9 40 40 Calm 30.44 1031 10 16.0934 0 0
12:35 pm 12:35 Sunny 68 19.9 41 4.9 37 37 ESE 6 9 30.42 1030 10 16.0934 0 0
12:55 pm 12:55 Sunny 69 20.4 40 4.4 35 35 ESE 5 7 30.42 1030 10 16.0934 0 0
1:15 pm 13:15 Sunny 70 21.2 40 4.4 33 33 SE 8 13 30.41 1030 10 16.0934 0 0
1:35 pm 13:35 Sunny 70 21.1 40 4.3 33 33 ESE 9 15 30.4 1030 10 16.0934 0 0
1:55 pm 13:55 Sunny 72 22 40 4.6 32 32 ENE 5 7 30.39 1029 10 16.0934 0 0
2:15 pm 14:15 Sunny 72 22.1 41 4.8 32 32 ENE 6 9 30.38 1029 10 16.0934 0 0
2:35 pm 14:35 Sunny 73 22.7 40 4.2 30 30 ENE 6 9 30.38 1029 10 16.0934 0 0
2:55 pm 14:55 Sunny 74 23.3 40 4.6 30 30 E 7 11 30.37 1028 10 16.0934 0 0
3:15 pm 15:15 Sunny 74 23.2 40 4.3 29 29 ESE 7 11 30.35 1028 10 16.0934 0 0
3:35 pm 15:35 Sunny 74 23.4 37 3 26 26 SE 8 13 30.35 1028 10 16.0934 0 0
3:55 pm 15:55 Sunny 74 23.3 34 1.1 23 23 E 6 9 30.34 1027 10 16.0934 0 0
4:15 pm 16:15 Sunny 74 23.4 33 0.6 22 22 ESE 9 15 30.33 1027 10 16.0934 0 0
4:35 pm 16:35 Sunny 74 23.3 35 1.8 24 24 E 5 7 30.32 1027 10 16.0934 0 0
4:55 pm 16:55 Sunny 74 23.4 35 1.4 24 24 E 8 13 30.31 1026 10 16.0934 0 0
5:15 pm 17:15 Sunny 74 23.4 35 1.6 24 24 E 5 7 30.31 1026 10 16.0934 0 0
5:35 pm 17:35 Sunny 73 23 36 2.4 26 26 ESE 5 7 30.3 1026 10 16.0934 0 0
5:55 pm 17:55 Sunny 73 22.7 39 3.7 29 29 E 5 7 30.3 1026 10 16.0934 0 0
6:15 pm 18:15 Sunny 73 22.5 38 3.3 29 29 E 8 13 30.3 1026 10 16.0934 0 0
6:35 pm 18:35 Sunny 71 21.9 38 3.1 29 29 ESE 7 11 30.3 1026 10 16.0934 0 0
6:55 pm 18:55 Sunny 70 21.1 37 2.9 30 30 E 7 11 30.3 1026 10 16.0934 0 0
7:15 pm 19:15 Sunny 68 19.8 38 3.5 34 34 ESE 5 7 30.3 1026 10 16.0934 0 0
7:35 pm 19:35 Sunny 68 19.8 38 3.5 34 34 ESE 3 6 30.3 1026 10 16.0934 0 0
7:55 pm 19:55 Clear 65 18.2 38 3.6 38 38 Calm 30.31 1026 10 16.0934 0 0
8:15 pm 20:15 Clear 58 14.3 45 7.2 63 63 Calm 30.32 1027 10 16.0934 0 0
8:35 pm 20:35 Clear 55 12.9 45 7 68 68 Calm 30.32 1027 10 16.0934 0 0
8:55 pm 20:55 Clear 54 12.3 45 7.1 71 71 Calm 30.33 1027 10 16.0934 0 0
9:15 pm 21:15 Clear 52 11.2 44 6.9 75 75 Calm 30.34 1027 10 16.0934 0 0
9:35 pm 21:35 Clear 51 10.5 44 6.7 78 78 Calm 30.34 1027 10 16.0934 0 0
9:55 pm 21:55 Clear 51 10.4 44 6.5 77 77 Calm 30.34 1027 10 16.0934 0 0
10:15 pm 22:15 Clear 48 9 43 6.3 83 83 Calm 30.34 1027 10 16.0934 0 0
10:35 pm 22:35 Clear 49 9.3 44 6.8 85 85 Calm 30.34 1027 10 16.0934 0 0
10:55 pm 22:55 Clear 49 9.4 45 7.1 86 86 Calm 30.34 1027 10 16.0934 0 0
11:15 pm 23:15 Clear 48 9 44 6.5 85 85 Calm 30.34 1027 10 16.0934 0 0
11:35 pm 23:35 Clear 47 8.1 43 6 87 87 Calm 30.34 1028 10 16.0934 0 0
11:55 pm 23:55 Clear 47 8.3 44 6.6 89 89 Calm 30.34 1028 10 16.0934 0 0

Powered by AerisWeather